FW7026 Weather Reports


Display with metric or nautical units.
time (UTC)temp
F
wind
direction
speed
MPH
gust
MPH
rain 1hr
in
rain 24hr
in
rain mn
in
humidity
%
barometer
mb
20260905015422 60 286 0.0 10.0 0.00 0.26 0.26 93 1007.1
20260905014921 60 286 0.0 10.0 0.00 0.26 0.26 93 1007.1
20260905014417 60 286 0.0 10.0 0.00 0.26 0.26 93 1007.1
20260905012726 60 192 0.0 0.0 0.00 0.26 0.26 93 1007.1
20260905012221 60 192 0.0 0.0 0.00 0.26 0.26 93 1007.1
20260905011718 60 192 0.0 0.0 0.00 0.26 0.26 93 1007.1
20260905010035 60 157 0.0 0.0 0.00 0.26 0.26 93 1006.7
20260905005530 60 157 0.0 0.0 0.00 0.26 0.26 93 1006.7
20260905005020 60 157 0.0 0.0 0.00 0.26 0.26 93 1006.7
20260905003331 60 226 0.0 0.0 0.00 0.26 0.26 93 1007.1
20260905002826 60 226 0.0 0.0 0.00 0.26 0.26 93 1007.1
20260905002320 60 226 0.0 0.0 0.00 0.26 0.26 93 1007.1
20260905000621 61 6 0.0 0.0 0.00 0.26 0.26 92 1007.1
20260905000117 61 6 0.0 0.0 0.00 0.26 0.26 92 1007.1
20260904235616 61 6 0.0 0.0 0.00 0.26 0.26 92 1007.1
20260904233928 61 266 0.0 0.0 0.00 0.26 0.26 92 1007.1
20260904233423 61 266 0.0 0.0 0.00 0.26 0.26 92 1007.1
20260904232919 61 266 0.0 0.0 0.00 0.26 0.26 92 1007.1
20260904231227 61 199 0.0 0.0 0.00 0.26 0.26 92 1007.1
20260904230726 61 199 0.0 0.0 0.00 0.26 0.26 92 1007.1
20260904230220 61 199 0.0 0.0 0.00 0.26 0.26 92 1007.1
20260904224517 62 226 0.0 0.0 0.00 0.26 0.26 92 1007.1
20260904224017 62 226 0.0 0.0 0.00 0.26 0.26 92 1007.1
20260904223515 62 226 0.0 0.0 0.00 0.26 0.26 92 1007.1
20260904221827 63 253 0.0 0.0 0.00 0.26 0.26 91 1007.1
20260904221322 63 253 0.0 0.0 0.00 0.26 0.26 91 1007.1
20260904220817 63 253 0.0 0.0 0.00 0.26 0.26 91 1007.1
20260904215123 63 172 0.0 0.0 0.00 0.26 0.26 91 1006.7
20260904214623 63 172 0.0 0.0 0.00 0.26 0.26 91 1006.7
20260904214119 63 172 0.0 0.0 0.00 0.26 0.26 91 1006.7
20260904212428 63 178 0.0 0.0 0.00 0.26 0.26 90 1006.7
20260904211923 63 178 0.0 0.0 0.00 0.26 0.26 90 1006.7
20260904211418 63 178 0.0 0.0 0.00 0.26 0.26 90 1006.7
20260904205729 64 200 0.0 0.0 0.00 0.26 0.26 89 1006.7
20260904205219 64 200 0.0 0.0 0.00 0.26 0.26 89 1006.7
20260904204715 64 200 0.0 0.0 0.00 0.26 0.26 89 1006.7
20260904203029 65 188 0.0 0.0 0.07 0.26 0.26 87 1006.7
20260904202525 65 188 0.0 0.0 0.07 0.26 0.26 87 1006.7
20260904202020 65 188 0.0 0.0 0.07 0.26 0.26 87 1006.7
20260904200318 67 350 0.0 0.0 0.00 0.25 0.25 88 1006.4
20260904195819 67 350 0.0 0.0 0.00 0.25 0.25 88 1006.4
20260904195317 67 350 0.0 0.0 0.00 0.25 0.25 88 1006.4
20260904193627 67 208 0.0 0.0 0.00 0.25 0.25 88 1006.4
20260904193123 67 208 0.0 0.0 0.00 0.25 0.25 88 1006.4
20260904192617 67 208 0.0 0.0 0.00 0.25 0.25 88 1006.4
20260904190921 66 175 0.0 0.0 0.00 0.24 0.24 88 1006.7
20260904190421 66 175 0.0 0.0 0.00 0.24 0.24 88 1006.7
20260904185917 66 175 0.0 0.0 0.00 0.24 0.24 88 1006.7
20260904184223 68 289 0.0 0.0 0.07 0.19 0.19 84 1006.4
20260904183719 68 289 0.0 0.0 0.07 0.19 0.19 84 1006.4
20260904183218 68 289 0.0 0.0 0.07 0.19 0.19 84 1006.4
20260904181524 68 208 0.0 0.0 0.00 0.18 0.18 88 1006.4
20260904181019 68 208 0.0 0.0 0.00 0.18 0.18 88 1006.4
20260904180518 68 208 0.0 0.0 0.00 0.18 0.18 88 1006.4
20260904174826 68 347 0.0 0.0 0.00 0.18 0.18 86 1006.4
20260904174323 68 347 0.0 0.0 0.00 0.18 0.18 86 1006.4
20260904173818 68 347 0.0 0.0 0.00 0.18 0.18 86 1006.4
20260904172129 66 173 0.0 0.0 0.00 0.18 0.18 90 1006.4
20260904171625 66 173 0.0 0.0 0.00 0.18 0.18 90 1006.4
20260904171120 66 173 0.0 0.0 0.00 0.18 0.18 90 1006.4
20260904165419 65 215 0.0 0.0 0.85 0.18 0.18 89 1007.1
20260904164918 65 215 0.0 0.0 0.85 0.18 0.18 89 1007.1
20260904164418 65 215 0.0 0.0 0.85 0.18 0.18 89 1007.1
20260904162730 65 7 0.0 0.0 0.00 0.01 0.01 92 1007.1
20260904162225 65 7 0.0 0.0 0.00 0.01 0.01 92 1007.1
20260904161720 65 7 0.0 0.0 0.00 0.01 0.01 92 1007.1
20260904160027 64 191 0.0 0.0 0.00 0.01 0.01 92 1007.1
20260904155520 64 191 0.0 0.0 0.00 0.01 0.01 92 1007.1
20260904155020 64 191 0.0 0.0 0.00 0.01 0.01 92 1007.1
20260904153330 65 196 0.0 0.0 0.00 0.01 0.01 93 1007.4
20260904152826 65 196 0.0 0.0 0.00 0.01 0.01 93 1007.4
20260904152320 65 196 0.0 0.0 0.00 0.01 0.01 93 1007.4
20260904150625 63 189 0.0 0.0 0.00 0.01 0.01 93 1007.4
20260904150120 63 189 0.0 0.0 0.00 0.01 0.01 93 1007.4
20260904145618 63 189 0.0 0.0 0.00 0.01 0.01 93 1007.4
20260904143926 63 180 0.0 0.0 0.00 0.01 0.01 93 1007.4
20260904143423 63 180 0.0 0.0 0.00 0.01 0.01 93 1007.4
20260904142919 63 180 0.0 0.0 0.00 0.01 0.01 93 1007.4
20260904141230 62 183 0.0 0.0 0.00 0.01 0.01 93 1007.7
20260904140725 62 183 0.0 0.0 0.00 0.01 0.01 93 1007.7
20260904140220 62 183 0.0 0.0 0.00 0.01 0.01 93 1007.7
20260904134530 62 183 0.0 0.0 0.00 0.01 0.01 93 1007.7
20260904134025 62 183 0.0 0.0 0.00 0.01 0.01 93 1007.7
20260904133519 62 183 0.0 0.0 0.00 0.01 0.01 93 1007.7
20260904131824 61 178 0.0 0.0 0.00 0.01 0.01 93 1007.4
20260904131320 61 178 0.0 0.0 0.00 0.01 0.01 93 1007.4
20260904130819 61 178 0.0 0.0 0.00 0.01 0.01 93 1007.4
20260904125125 61 190 0.0 0.0 0.00 0.01 0.01 93 1007.7
20260904124624 61 190 0.0 0.0 0.00 0.01 0.01 93 1007.7
20260904124120 61 190 0.0 0.0 0.00 0.01 0.01 93 1007.7
20260904122425 60 199 0.0 0.0 0.00 0.01 0.01 93 1007.7
20260904121920 60 199 0.0 0.0 0.00 0.01 0.01 93 1007.7
20260904121416 60 199 0.0 0.0 0.00 0.01 0.01 93 1007.7
20260904115724 60 202 0.0 0.0 0.00 0.01 0.01 93 1007.7
20260904115223 60 202 0.0 0.0 0.00 0.01 0.01 93 1007.7
20260904114719 60 202 0.0 0.0 0.00 0.01 0.01 93 1007.7
20260904113027 60 192 0.0 0.0 0.00 0.01 0.01 93 1007.7
20260904112522 60 192 0.0 0.0 0.00 0.01 0.01 93 1007.7
20260904112018 60 192 0.0 0.0 0.00 0.01 0.01 93 1007.7
20260904110324 60 192 0.0 0.0 0.00 0.01 0.01 93 1007.7
20260904105819 60 192 0.0 0.0 0.00 0.01 0.01 93 1007.7
20260904105319 60 192 0.0 0.0 0.00 0.01 0.01 93 1007.7
20260904103626 60 181 0.0 0.0 0.00 0.01 0.01 93 1007.7
20260904103121 60 181 0.0 0.0 0.00 0.01 0.01 93 1007.7
20260904102617 60 181 0.0 0.0 0.00 0.01 0.01 93 1007.7
20260904100931 60 183 0.0 0.0 0.00 0.01 0.01 93 1007.4
20260904100426 60 183 0.0 0.0 0.00 0.01 0.01 93 1007.4
20260904095920 60 183 0.0 0.0 0.00 0.01 0.01 93 1007.4
20260904094225 60 195 0.0 0.0 0.00 0.01 0.01 93 1007.4
20260904093721 60 195 0.0 0.0 0.00 0.01 0.01 93 1007.4
20260904093220 60 195 0.0 0.0 0.00 0.01 0.01 93 1007.4
20260904091525 60 186 0.0 0.0 0.00 0.01 0.01 93 1007.4
20260904091024 60 186 0.0 0.0 0.00 0.01 0.01 93 1007.4
20260904090519 60 186 0.0 0.0 0.00 0.01 0.01 93 1007.4
20260904084826 60 159 0.0 0.0 0.07 0.01 0.01 93 1007.7
20260904084322 60 159 0.0 0.0 0.07 0.01 0.01 93 1007.7
20260904083817 60 159 0.0 0.0 0.07 0.01 0.01 93 1007.7
20260904082129 60 195 0.0 0.0 0.00 0.00 0.00 93 1007.7
20260904081624 60 195 0.0 0.0 0.00 0.00 0.00 93 1007.7
20260904081119 60 195 0.0 0.0 0.00 0.00 0.00 93 1007.7
20260904075427 60 195 0.0 0.0 0.00 0.00 0.00 93 1007.7
20260904074925 60 195 0.0 0.0 0.00 0.00 0.00 93 1007.7
20260904074421 60 195 0.0 0.0 0.00 0.00 0.00 93 1007.7
20260904072724 60 199 0.0 0.0 0.00 0.00 0.00 93 1007.7
20260904072223 60 199 0.0 0.0 0.00 0.00 0.00 93 1007.7
20260904071719 60 199 0.0 0.0 0.00 0.00 0.00 93 1007.7
20260904070027 60 170 0.0 0.0 0.00 0.00 0.00 93 1008.1
20260904065522 60 170 0.0 0.0 0.00 0.00 0.00 93 1008.1
20260904065018 60 170 0.0 0.0 0.00 0.00 0.00 93 1008.1
20260904063326 60 168 0.0 0.0 0.00 0.00 0.00 93 1008.4
20260904062820 60 168 0.0 0.0 0.00 0.00 0.00 93 1008.4
20260904062316 60 168 0.0 0.0 0.00 0.00 0.00 93 1008.4
20260904060631 60 196 0.0 0.0 0.00 0.00 0.00 93 1008.8
20260904060121 60 196 0.0 0.0 0.00 0.00 0.00 93 1008.8
20260904055621 60 196 0.0 0.0 0.00 0.00 0.00 93 1008.8
20260904053923 60 189 0.0 0.0 0.00 0.00 0.00 93 1008.8
20260904053422 60 189 0.0 0.0 0.00 0.00 0.00 93 1008.8
20260904052917 60 189 0.0 0.0 0.00 0.00 0.00 93 1008.8
20260904051225 60 214 0.0 0.0 0.00 0.00 0.00 93 1008.8
20260904050720 60 214 0.0 0.0 0.00 0.00 0.00 93 1008.8
20260904050216 60 195 0.0 0.0 0.00 0.00 0.00 93 1008.8
20260904044528 60 199 0.0 0.0 0.00 0.00 0.00 93 1009.1
20260904044024 60 199 0.0 0.0 0.00 0.00 0.00 93 1009.1
20260904043520 60 199 0.0 0.0 0.00 0.00 0.00 93 1009.1
20260904041825 60 196 0.0 0.0 0.00 0.00 0.00 93 1009.9
20260904041322 60 196 0.0 0.0 0.00 0.00 0.00 93 1009.9
20260904040817 60 196 0.0 0.0 0.00 0.00 0.00 93 1009.9
20260904035124 60 191 0.0 0.0 0.00 0.63 0.63 93 1009.5
20260904034624 60 191 0.0 0.0 0.00 0.63 0.63 93 1009.5
20260904034119 60 191 0.0 0.0 0.00 0.63 0.63 93 1009.5
20260904032422 60 190 0.0 0.0 0.00 0.63 0.63 93 1009.9
20260904031921 60 190 0.0 0.0 0.00 0.63 0.63 93 1009.9
20260904031417 60 190 0.0 0.0 0.00 0.63 0.63 93 1009.9
20260904025730 60 200 0.0 0.0 0.00 0.63 0.63 93 1009.9
20260904025224 60 200 0.0 0.0 0.00 0.63 0.63 93 1009.9
20260904024720 60 200 0.0 0.0 0.00 0.63 0.63 93 1009.9
20260904023021 60 200 0.0 0.0 0.00 0.63 0.63 93 1010.2
20260904022520 60 200 0.0 0.0 0.00 0.63 0.63 93 1010.2
20260904022018 60 200 0.0 0.0 0.00 0.63 0.63 93 1010.2
20260904020323 60 203 0.0 0.0 0.00 0.63 0.63 93 1010.6